Time,TemperatureF,DewpointF,PressureIn,WindDirection,WindDirectionDegrees,WindSpeedMPH,WindSpeedGustMPH,Humidity,HourlyPrecipIn,Conditions,Clouds,dailyrainin,SoftwareType,DateUTC
2013-03-31 00:03:00,49.0,-99.9,-100.00,SSE,150,7.0,10.0,46,0.00,,,-99.99,,2013-03-31 04:03:00,
2013-03-31 00:13:00,49.0,29.0,-100.00,SE,145,6.0,9.0,46,0.00,,,-99.99,,2013-03-31 04:13:00,
2013-03-31 00:23:00,49.0,29.0,-100.00,SSE,150,6.0,9.0,46,0.00,,,-99.99,,2013-03-31 04:23:00,
2013-03-31 00:33:00,49.0,29.0,-100.00,SSE,155,3.0,7.0,47,0.00,,,-99.99,,2013-03-31 04:33:00,
2013-03-31 00:42:00,49.0,29.0,-100.00,SSE,165,6.0,10.0,45,0.00,,,-99.99,,2013-03-31 04:42:00,
2013-03-31 00:52:00,49.0,28.0,-100.00,SSE,165,11.0,14.0,43,0.00,,,-99.99,,2013-03-31 04:52:00,
2013-03-31 01:02:00,48.0,28.0,-100.00,SSE,160,11.0,15.0,44,0.00,,,-99.99,,2013-03-31 05:02:00,
2013-03-31 01:12:00,48.0,28.0,-100.00,SSE,160,11.0,14.0,45,0.00,,,-99.99,,2013-03-31 05:12:00,
2013-03-31 01:22:00,48.0,28.0,-100.00,SSE,160,12.0,15.0,45,0.00,,,-99.99,,2013-03-31 05:22:00,
2013-03-31 01:32:00,48.0,28.0,-100.00,SSE,160,11.0,14.0,45,0.00,,,-99.99,,2013-03-31 05:32:00,
2013-03-31 01:42:00,48.0,28.0,-100.00,SSE,160,11.0,15.0,45,0.00,,,-99.99,,2013-03-31 05:42:00,
2013-03-31 01:52:00,47.0,28.0,-100.00,SSE,160,10.0,13.0,45,0.00,,,-99.99,,2013-03-31 05:52:00,
2013-03-31 02:02:00,47.0,28.0,-100.00,SSE,160,9.0,12.0,46,0.00,,,-99.99,,2013-03-31 06:02:00,
2013-03-31 02:12:00,47.0,28.0,-100.00,SSE,155,9.0,15.0,47,0.00,,,-99.99,,2013-03-31 06:12:00,
2013-03-31 02:22:00,48.0,28.0,-100.00,SSE,155,11.0,14.0,46,0.00,,,-99.99,,2013-03-31 06:22:00,
2013-03-31 02:33:00,47.0,27.0,-100.00,SSE,160,12.0,15.0,45,0.00,,,-99.99,,2013-03-31 06:33:00,
2013-03-31 02:42:00,47.0,27.0,-100.00,SSE,160,14.0,17.0,45,0.00,,,-99.99,,2013-03-31 06:42:00,
2013-03-31 02:52:00,47.0,27.0,-100.00,SSE,160,12.0,17.0,46,0.00,,,-99.99,,2013-03-31 06:52:00,
2013-03-31 03:02:00,46.0,27.0,-100.00,SSE,165,11.0,14.0,47,0.00,,,-99.99,,2013-03-31 07:02:00,
2013-03-31 03:12:00,46.0,27.0,-100.00,SSE,165,9.0,14.0,48,0.00,,,-99.99,,2013-03-31 07:12:00,
2013-03-31 03:22:00,46.0,27.0,-100.00,SSE,165,11.0,14.0,47,0.00,,,-99.99,,2013-03-31 07:22:00,
2013-03-31 03:33:00,47.0,27.0,-100.00,SSE,160,12.0,16.0,45,0.00,,,-99.99,,2013-03-31 07:33:00,
2013-03-31 03:42:00,47.0,27.0,-100.00,SSE,155,14.0,17.0,45,0.00,,,-99.99,,2013-03-31 07:42:00,
2013-03-31 03:52:00,46.0,27.0,-100.00,SSE,165,12.0,19.0,46,0.00,,,-99.99,,2013-03-31 07:52:00,
2013-03-31 04:02:00,45.0,27.0,-100.00,South,175,9.0,14.0,48,0.00,,,-99.99,,2013-03-31 08:02:00,
2013-03-31 04:12:00,45.0,27.0,-100.00,SSE,165,10.0,13.0,49,0.00,,,-99.99,,2013-03-31 08:12:00,
2013-03-31 04:22:00,44.0,27.0,-100.00,SSE,165,9.0,14.0,49,0.00,,,-99.99,,2013-03-31 08:22:00,
2013-03-31 04:32:00,44.0,27.0,-100.00,South,170,8.0,14.0,50,0.00,,,-99.99,,2013-03-31 08:32:00,
2013-03-31 04:42:00,44.0,27.0,-100.00,South,180,7.0,12.0,50,0.00,,,-99.99,,2013-03-31 08:42:00,
2013-03-31 04:52:00,44.0,27.0,-100.00,SSE,165,6.0,10.0,51,0.00,,,-99.99,,2013-03-31 08:52:00,
2013-03-31 05:02:00,44.0,27.0,-100.00,South,175,7.0,11.0,51,0.00,,,-99.99,,2013-03-31 09:02:00,
2013-03-31 05:12:00,44.0,27.0,-100.00,South,185,8.0,12.0,51,0.00,,,-99.99,,2013-03-31 09:12:00,
2013-03-31 05:22:00,44.0,27.0,-100.00,South,170,7.0,12.0,52,0.00,,,-99.99,,2013-03-31 09:22:00,
2013-03-31 05:33:00,43.0,27.0,-100.00,SSE,165,10.0,15.0,52,0.00,,,-99.99,,2013-03-31 09:33:00,
2013-03-31 05:42:00,44.0,27.0,-100.00,South,175,9.0,15.0,53,0.00,,,-99.99,,2013-03-31 09:42:00,
2013-03-31 05:53:00,43.0,28.0,-100.00,South,180,9.0,11.0,53,0.00,,,-99.99,,2013-03-31 09:53:00,
2013-03-31 06:03:00,43.0,28.0,-100.00,South,180,7.0,12.0,54,0.00,,,-99.99,,2013-03-31 10:03:00,
2013-03-31 06:13:00,43.0,28.0,-100.00,South,190,7.0,11.0,55,0.00,,,-99.99,,2013-03-31 10:13:00,
2013-03-31 06:24:00,43.0,28.0,-100.00,South,185,9.0,12.0,55,0.00,,,-99.99,,2013-03-31 10:24:00,
2013-03-31 06:33:00,43.0,29.0,-100.00,South,190,8.0,12.0,56,0.00,,,-99.99,,2013-03-31 10:33:00,
2013-03-31 06:42:00,43.0,29.0,-100.00,South,185,7.0,13.0,57,0.00,,,-99.99,,2013-03-31 10:42:00,
2013-03-31 06:53:00,43.0,29.0,-100.00,South,185,7.0,13.0,57,0.00,,,-99.99,,2013-03-31 10:53:00,
2013-03-31 07:03:00,43.0,29.0,-100.00,South,175,8.0,12.0,57,0.00,,,-99.99,,2013-03-31 11:03:00,
2013-03-31 07:12:00,43.0,29.0,-100.00,South,180,9.0,13.0,58,0.00,,,-99.99,,2013-03-31 11:12:00,
2013-03-31 07:23:00,43.0,29.0,-100.00,South,190,7.0,11.0,58,0.00,,,-99.99,,2013-03-31 11:23:00,
2013-03-31 07:32:00,43.0,29.0,-100.00,South,170,9.0,12.0,58,0.00,,,-99.99,,2013-03-31 11:32:00,
2013-03-31 07:42:00,43.0,29.0,-100.00,South,185,9.0,12.0,58,0.00,,,-99.99,,2013-03-31 11:42:00,
2013-03-31 07:52:00,43.0,30.0,-100.00,South,190,8.0,11.0,59,0.00,,,-99.99,,2013-03-31 11:52:00,
2013-03-31 08:03:00,43.0,30.0,-100.00,South,185,7.0,11.0,59,0.00,,,-99.99,,2013-03-31 12:03:00,
2013-03-31 08:12:00,43.0,30.0,-100.00,South,190,9.0,12.0,59,0.00,,,-99.99,,2013-03-31 12:12:00,
2013-03-31 08:22:00,43.0,30.0,-100.00,South,185,9.0,12.0,59,0.00,,,-99.99,,2013-03-31 12:22:00,
2013-03-31 08:33:00,44.0,30.0,-100.00,South,190,9.0,13.0,59,0.00,,,-99.99,,2013-03-31 12:33:00,
2013-03-31 08:42:00,44.0,31.0,-100.00,SSW,195,10.0,13.0,60,0.00,,,-99.99,,2013-03-31 12:42:00,
2013-03-31 08:52:00,44.0,31.0,-100.00,SSW,195,12.0,15.0,61,0.00,,,-99.99,,2013-03-31 12:52:00,
2013-03-31 09:02:00,43.0,31.0,-100.00,SSW,195,12.0,16.0,62,5.67,,,-99.99,,2013-03-31 13:02:00,
2013-03-31 09:12:00,44.0,32.0,-100.00,SSW,195,11.0,16.0,63,0.00,,,-99.99,,2013-03-31 13:12:00,
2013-03-31 09:22:00,44.0,32.0,-100.00,SSW,195,10.0,14.0,63,0.00,,,-99.99,,2013-03-31 13:22:00,
2013-03-31 09:32:00,44.0,33.0,-100.00,SSW,195,9.0,12.0,63,0.00,,,-99.99,,2013-03-31 13:32:00,
2013-03-31 09:42:00,45.0,33.0,-100.00,SSW,195,9.0,12.0,63,0.00,,,-99.99,,2013-03-31 13:42:00,
2013-03-31 09:52:00,45.0,33.0,-100.00,SSW,205,9.0,13.0,63,0.00,,,-99.99,,2013-03-31 13:52:00,
2013-03-31 10:02:00,46.0,34.0,-100.00,SSW,195,11.0,17.0,63,0.00,,,-99.99,,2013-03-31 14:02:00,
2013-03-31 10:12:00,46.0,34.0,-100.00,SSW,200,11.0,17.0,63,0.00,,,-99.99,,2013-03-31 14:12:00,
2013-03-31 10:22:00,46.0,35.0,-100.00,SSW,200,9.0,16.0,65,0.00,,,-99.99,,2013-03-31 14:22:00,
2013-03-31 10:33:00,47.0,36.0,-100.00,SW,225,11.0,15.0,65,0.00,,,-99.99,,2013-03-31 14:33:00,
2013-03-31 10:42:00,47.0,36.0,-100.00,SW,220,14.0,21.0,66,5.08,,,-99.99,,2013-03-31 14:42:00,
2013-03-31 10:52:00,47.0,37.0,-100.00,SW,230,12.0,17.0,67,5.08,,,-99.99,,2013-03-31 14:52:00,
2013-03-31 11:03:00,47.0,38.0,-100.00,WSW,240,11.0,16.0,71,5.67,,,-99.99,,2013-03-31 15:03:00,
2013-03-31 11:13:00,47.0,39.0,-100.00,WSW,240,11.0,15.0,74,5.08,,,-99.99,,2013-03-31 15:13:00,
2013-03-31 11:22:00,47.0,40.0,-100.00,SW,230,9.0,16.0,78,5.67,,,-99.99,,2013-03-31 15:22:00,
2013-03-31 11:33:00,46.0,41.0,-100.00,SW,225,10.0,13.0,81,0.00,,,-99.99,,2013-03-31 15:33:00,
2013-03-31 11:43:00,46.0,41.0,-100.00,SW,215,11.0,17.0,82,0.00,,,-99.99,,2013-03-31 15:43:00,
2013-03-31 11:53:00,46.0,41.0,-100.00,SSW,210,15.0,19.0,82,0.00,,,-99.99,,2013-03-31 15:53:00,
2013-03-31 12:03:00,46.0,41.0,-100.00,SW,225,12.0,20.0,82,0.00,,,-99.99,,2013-03-31 16:03:00,
2013-03-31 12:13:00,46.0,41.0,-100.00,SW,220,12.0,20.0,83,0.00,,,-99.99,,2013-03-31 16:13:00,
2013-03-31 12:23:00,46.0,41.0,-100.00,SW,235,13.0,16.0,83,0.00,,,-99.99,,2013-03-31 16:23:00,
2013-03-31 12:33:00,46.0,42.0,-100.00,WSW,245,11.0,15.0,82,0.00,,,-99.99,,2013-03-31 16:33:00,
2013-03-31 12:43:00,47.0,42.0,-100.00,WSW,240,12.0,15.0,82,0.00,,,-99.99,,2013-03-31 16:43:00,
2013-03-31 12:53:00,47.0,42.0,-100.00,SW,230,12.0,22.0,82,0.00,,,-99.99,,2013-03-31 16:53:00,
2013-03-31 13:03:00,47.0,42.0,-100.00,WSW,240,16.0,22.0,81,0.00,,,-99.99,,2013-03-31 17:03:00,
2013-03-31 13:12:00,47.0,42.0,-100.00,SW,230,11.0,16.0,81,0.00,,,-99.99,,2013-03-31 17:12:00,
2013-03-31 13:23:00,47.0,42.0,-100.00,SW,215,14.0,19.0,80,0.00,,,-99.99,,2013-03-31 17:23:00,
2013-03-31 13:32:00,47.0,42.0,-100.00,WSW,245,13.0,17.0,81,0.00,,,-99.99,,2013-03-31 17:32:00,
2013-03-31 13:43:00,47.0,42.0,-100.00,SW,235,12.0,19.0,81,0.00,,,-99.99,,2013-03-31 17:43:00,
2013-03-31 13:52:00,47.0,42.0,-100.00,WSW,240,17.0,21.0,82,0.00,,,-99.99,,2013-03-31 17:52:00,
2013-03-31 14:03:00,47.0,42.0,-100.00,SW,225,14.0,21.0,84,0.00,,,-99.99,,2013-03-31 18:03:00,
2013-03-31 14:13:00,47.0,43.0,-100.00,SW,215,11.0,22.0,84,0.00,,,-99.99,,2013-03-31 18:13:00,
2013-03-31 14:22:00,48.0,42.0,-100.00,SW,215,15.0,22.0,79,0.00,,,-99.99,,2013-03-31 18:22:00,
2013-03-31 14:33:00,49.0,42.0,-100.00,SW,225,12.0,21.0,76,0.00,,,-99.99,,2013-03-31 18:33:00,
2013-03-31 14:42:00,50.0,42.0,-100.00,SW,220,15.0,19.0,75,0.00,,,-99.99,,2013-03-31 18:42:00,
2013-03-31 15:03:00,52.0,40.0,-100.00,SSW,205,18.0,23.0,65,0.00,,,-99.99,,2013-03-31 19:03:00,
2013-03-31 15:12:00,52.0,39.0,-100.00,SW,225,13.0,23.0,61,0.00,,,-99.99,,2013-03-31 19:12:00,
2013-03-31 15:22:00,52.0,40.0,-100.00,SW,220,16.0,24.0,62,0.00,,,-99.99,,2013-03-31 19:22:00,
2013-03-31 15:33:00,53.0,40.0,-100.00,SW,220,14.0,25.0,59,0.00,,,-99.99,,2013-03-31 19:33:00,
2013-03-31 15:43:00,54.0,37.0,-100.00,SW,215,16.0,25.0,53,0.00,,,-99.99,,2013-03-31 19:43:00,
2013-03-31 15:53:00,55.0,37.0,-100.00,SW,235,13.0,24.0,51,0.00,,,-99.99,,2013-03-31 19:53:00,
2013-03-31 16:03:00,55.0,36.0,-100.00,SW,215,21.0,26.0,48,0.00,,,-99.99,,2013-03-31 20:03:00,
2013-03-31 16:12:00,56.0,36.0,-100.00,SW,225,17.0,25.0,48,0.00,,,-99.99,,2013-03-31 20:12:00,
2013-03-31 16:23:00,55.0,35.0,-100.00,WSW,240,17.0,26.0,46,0.00,,,-99.99,,2013-03-31 20:23:00,
2013-03-31 16:34:00,56.0,34.0,-100.00,SSW,210,19.0,25.0,43,0.00,,,-99.99,,2013-03-31 20:34:00,
2013-03-31 16:43:00,56.0,33.0,-100.00,West,265,18.0,27.0,41,0.00,,,-99.99,,2013-03-31 20:43:00,
2013-03-31 16:52:00,58.0,34.0,-100.00,WSW,255,14.0,22.0,40,0.00,,,-99.99,,2013-03-31 20:52:00,
2013-03-31 17:03:00,57.0,32.0,-100.00,WSW,250,17.0,24.0,38,0.00,,,-99.99,,2013-03-31 21:03:00,
2013-03-31 17:12:00,58.0,31.0,-100.00,WSW,250,17.0,24.0,36,0.00,,,-99.99,,2013-03-31 21:12:00,
2013-03-31 17:22:00,58.0,31.0,-100.00,WSW,245,17.0,24.0,35,0.00,,,-99.99,,2013-03-31 21:22:00,
2013-03-31 17:34:00,58.0,32.0,-100.00,WSW,240,15.0,24.0,37,0.00,,,-99.99,,2013-03-31 21:34:00,
2013-03-31 17:43:00,58.0,31.0,-100.00,WSW,240,19.0,27.0,36,0.00,,,-99.99,,2013-03-31 21:43:00,
2013-03-31 17:53:00,58.0,30.0,-100.00,WSW,255,14.0,25.0,35,0.00,,,-99.99,,2013-03-31 21:53:00,
2013-03-31 18:04:00,58.0,30.0,-100.00,WSW,240,17.0,25.0,34,0.00,,,-99.99,,2013-03-31 22:04:00,
2013-03-31 18:13:00,58.0,29.0,-100.00,West,270,17.0,29.0,33,0.00,,,-99.99,,2013-03-31 22:13:00,
2013-03-31 18:23:00,58.0,29.0,-100.00,WSW,255,14.0,25.0,33,0.00,,,-99.99,,2013-03-31 22:23:00,
2013-03-31 18:33:00,58.0,29.0,-100.00,WSW,245,17.0,22.0,33,0.00,,,-99.99,,2013-03-31 22:33:00,
2013-03-31 18:42:00,58.0,29.0,-100.00,SW,225,19.0,28.0,33,0.00,,,-99.99,,2013-03-31 22:42:00,
2013-03-31 18:53:00,58.0,29.0,-100.00,WSW,240,24.0,31.0,32,0.00,,,-99.99,,2013-03-31 22:53:00,
2013-03-31 19:03:00,58.0,29.0,-100.00,SW,230,15.0,30.0,33,0.00,,,-99.99,,2013-03-31 23:03:00,
2013-03-31 19:13:00,58.0,29.0,-100.00,WSW,250,17.0,29.0,34,0.00,,,-99.99,,2013-03-31 23:13:00,
2013-03-31 19:22:00,58.0,29.0,-100.00,WSW,250,21.0,30.0,33,0.00,,,-99.99,,2013-03-31 23:22:00,
2013-03-31 19:32:00,58.0,29.0,-100.00,WSW,250,18.0,27.0,34,0.00,,,-99.99,,2013-03-31 23:32:00,
2013-03-31 19:42:00,58.0,30.0,-100.00,WSW,245,12.0,25.0,35,0.00,,,-99.99,,2013-03-31 23:42:00,
2013-03-31 19:53:00,57.0,30.0,-100.00,West,265,14.0,21.0,36,0.00,,,-99.99,,2013-03-31 23:53:00,
2013-03-31 20:02:00,57.0,31.0,-100.00,West,260,12.0,16.0,36,0.00,,,-99.99,,2013-04-01 00:02:00,
2013-03-31 20:13:00,57.0,31.0,-100.00,WSW,255,12.0,22.0,36,0.00,,,-99.99,,2013-04-01 00:13:00,
2013-03-31 20:22:00,56.0,31.0,-100.00,SW,235,19.0,25.0,37,0.00,,,-99.99,,2013-04-01 00:22:00,
2013-03-31 20:32:00,56.0,31.0,-100.00,WSW,240,15.0,19.0,38,0.00,,,-99.99,,2013-04-01 00:32:00,
2013-03-31 20:43:00,56.0,31.0,-100.00,WSW,255,12.0,20.0,39,0.00,,,-99.99,,2013-04-01 00:43:00,
2013-03-31 20:52:00,56.0,31.0,-100.00,WSW,255,9.0,16.0,38,0.00,,,-99.99,,2013-04-01 00:52:00,
2013-03-31 21:03:00,55.0,30.0,-100.00,WSW,250,11.0,19.0,38,0.00,,,-99.99,,2013-04-01 01:03:00,
2013-03-31 21:12:00,55.0,30.0,-100.00,WSW,255,13.0,21.0,39,0.00,,,-99.99,,2013-04-01 01:12:00,
2013-03-31 21:23:00,54.0,31.0,-100.00,West,260,11.0,19.0,40,0.00,,,-99.99,,2013-04-01 01:23:00,
2013-03-31 21:33:00,54.0,31.0,-100.00,WSW,250,9.0,16.0,42,0.00,,,-99.99,,2013-04-01 01:33:00,
2013-03-31 21:42:00,53.0,31.0,-100.00,WSW,245,9.0,14.0,43,0.00,,,-99.99,,2013-04-01 01:42:00,
2013-03-31 21:52:00,53.0,33.0,-100.00,WSW,250,12.0,17.0,46,0.00,,,-99.99,,2013-04-01 01:52:00,
2013-03-31 22:03:00,53.0,33.0,-100.00,WSW,245,10.0,16.0,47,0.00,,,-99.99,,2013-04-01 02:03:00,
2013-03-31 22:13:00,52.0,33.0,-100.00,WSW,240,11.0,16.0,48,0.00,,,-99.99,,2013-04-01 02:13:00,
2013-03-31 22:23:00,52.0,33.0,-100.00,SW,230,7.0,13.0,48,0.00,,,-99.99,,2013-04-01 02:23:00,
2013-03-31 22:33:00,52.0,33.0,-100.00,SW,235,10.0,15.0,48,0.00,,,-99.99,,2013-04-01 02:33:00,
2013-03-31 22:42:00,52.0,34.0,-100.00,SW,230,7.0,17.0,49,0.00,,,-99.99,,2013-04-01 02:42:00,
2013-03-31 22:52:00,52.0,34.0,-100.00,WSW,245,9.0,12.0,49,0.00,,,-99.99,,2013-04-01 02:52:00,
2013-03-31 23:03:00,52.0,34.0,-100.00,WSW,240,12.0,21.0,50,0.00,,,-99.99,,2013-04-01 03:03:00,
2013-03-31 23:12:00,52.0,34.0,-100.00,WSW,245,15.0,23.0,50,0.00,,,-99.99,,2013-04-01 03:12:00,
2013-03-31 23:22:00,51.0,35.0,-100.00,WSW,245,17.0,25.0,52,0.00,,,-99.99,,2013-04-01 03:22:00,
2013-03-31 23:34:00,51.0,34.0,-100.00,West,270,19.0,26.0,52,0.00,,,-99.99,,2013-04-01 03:34:00,
2013-03-31 23:43:00,50.0,33.0,-100.00,West,265,18.0,26.0,52,0.00,,,-99.99,,2013-04-01 03:43:00,
2013-03-31 23:53:00,49.0,33.0,-100.00,West,265,17.0,24.0,54,0.00,,,-99.99,,2013-04-01 03:53:00,